Lewistown, MT

5:08 PM MDT on March 26, 2017 (GMT -0600)
Lewistown Municipal

Weather History for KLWT - October, 2011

Change the Weather History Date:

Thursday, October 27, 2011

  Actual Average Record
Temperature  
Mean Temperature 36 °F 40 °F  
Max Temperature 45 °F 52 °F 75 °F (1983)
Min Temperature 27 °F 28 °F -4 °F (1919)
Degree Days  
Heating Degree Days 29 25  
Month to date heating degree days 441 557  
Since 1 July heating degree days 707 1034  
Cooling Degree Days 0 0  
Month to date cooling degree days 5 0  
Year to date cooling degree days 215 210  
Moisture  
Dew Point 20 °F    
Average Humidity 60    
Maximum Humidity 75    
Minimum Humidity 44    
Precipitation  
Precipitation 0.00 in 0.03 in 0.99 in (1940)
Month to date precipitation 2.57 1.02  
Year to date precipitation 21.26 15.37  
Snow  
Snow 0.00 in - - ()
Snow Depth 0.00 in    
Sea Level Pressure  
Sea Level Pressure 30.09 in    
Wind  
Wind Speed 10 mph (West)    
Max Wind Speed 23 mph    
Max Gust Speed 33 mph    
Visibility 10 miles    
Events      
T = Trace of Precipitation, MM = Missing Value Source: NWS Daily Summary

Daily Weather History Graph

Daily Weather History Graph

Search for Another Location

Airport or City:

Trip Planner

Search our weather history database for the weather conditions in past years. The results will help you decide how hot, cold, wet, or windy it might be!

Date:

Astronomy

Oct. 27, 2011 Rise Set
Actual Time 7:53 AM MDT 6:09 PM MDT
Civil Twilight 7:21 AM MDT 6:41 PM MDT
Nautical Twilight 6:45 AM MDT 7:16 PM MDT
Astronomical Twilight 6:10 AM MDT 7:52 PM MDT
Moon 9:08 AM MDT (10/27) 6:32 PM MDT (10/27)
Length of Visible Light 11h 19m
Length of Day
10h 16m
New Moon, 1% of the Moon is Illuminated
Oct 27
New Moon
Nov 2
First Quarter
Nov 10
Full
Nov 18
Last Quarter
Nov 24
New

Hourly Weather History & Observations

Time (MDT) Temp. Windchill Dew Point Humidity Pressure Visibility Wind Dir Wind Speed Gust Speed Precip Events Conditions
12:54 AM 37.9 °F 31.5 °F 19.9 °F 48% 29.99 in 10.0 mi SW 9.2 mph - N/A   Overcast
2:54 AM 37.0 °F 29.8 °F 21.9 °F 54% 30.00 in 10.0 mi SW 10.4 mph - N/A   Scattered Clouds
3:54 AM 37.0 °F 31.0 °F 21.9 °F 54% 29.99 in 10.0 mi West 8.1 mph - N/A   Overcast
4:54 AM 35.1 °F 27.9 °F 19.9 °F 54% 30.01 in 10.0 mi WSW 9.2 mph - N/A   Mostly Cloudy
5:54 AM 35.1 °F 28.6 °F 19.0 °F 52% 30.05 in 10.0 mi WSW 8.1 mph - N/A   Overcast
6:54 AM 36.0 °F 29.0 °F 18.0 °F 48% 30.06 in 10.0 mi West 9.2 mph - N/A   Overcast
7:54 AM 36.0 °F 29.6 °F 19.9 °F 52% 30.06 in 10.0 mi West 8.1 mph - N/A   Overcast
8:54 AM 36.0 °F 31.1 °F 21.9 °F 57% 30.07 in 10.0 mi SW 5.8 mph - N/A   Overcast
9:54 AM 37.0 °F - 19.9 °F 50% 30.09 in 10.0 mi Calm Calm - N/A   Overcast
10:54 AM 39.0 °F - 19.0 °F 45% 30.09 in 10.0 mi Calm Calm - N/A   Mostly Cloudy
11:54 AM 42.1 °F 33.1 °F 19.0 °F 40% 30.09 in 10.0 mi NW 20.7 mph 27.6 mph N/A   Overcast
12:54 PM 42.1 °F 34.9 °F 19.9 °F 41% 30.09 in 10.0 mi NW 13.8 mph 21.9 mph N/A   Overcast
1:54 PM 43.0 °F 35.7 °F 19.0 °F 38% 30.08 in 10.0 mi WNW 15.0 mph 24.2 mph N/A   Overcast
2:54 PM 44.1 °F 35.9 °F 19.0 °F 37% 30.07 in 10.0 mi NW 19.6 mph 26.5 mph N/A   Partly Cloudy
3:54 PM 45.0 °F 37.9 °F 18.0 °F 34% 30.07 in 10.0 mi WNW 16.1 mph 21.9 mph N/A   Partly Cloudy
4:54 PM 44.1 °F 36.8 °F 18.0 °F 35% 30.09 in 10.0 mi WNW 16.1 mph 23.0 mph N/A   Mostly Cloudy
5:54 PM 42.1 °F 34.9 °F 19.9 °F 41% 30.11 in 10.0 mi WNW 13.8 mph - N/A   Overcast
7:54 PM 37.9 °F 33.5 °F 21.0 °F 51% 30.16 in 10.0 mi WNW 5.8 mph - N/A   Overcast
8:54 PM 35.1 °F 29.3 °F 23.0 °F 61% 30.18 in 10.0 mi WSW 6.9 mph - N/A   Overcast
9:54 PM 34.0 °F 27.2 °F 23.0 °F 64% 30.19 in 10.0 mi WSW 8.1 mph - N/A   Overcast
10:54 PM 34.0 °F 27.2 °F 21.9 °F 61% 30.22 in 10.0 mi West 8.1 mph - N/A   Overcast
11:54 PM 28.0 °F 21.7 °F 21.0 °F 75% 30.25 in 10.0 mi SE 5.8 mph - N/A   Partly Cloudy